Weather Roundup
Issued by NWS Springfield, MO

Home | Current Version | Previous Version | Text Only | Print | Product List | Glossary On
Versions: 1 2 3 4 5 6 7 8 9 10 11 12 13 14 15 16 17 18 19 20 21 22 23 24 25 26 27 28 29 30 31 32 33 34 35 36 37 38 39 40 41 42 43 44 45 46 47 48 49 50
000
NZUS99 KSGF 251857
HRRSGF

HOURLY WEATHER
NATIONAL WEATHER SERVICE SPRINGFIELD MO
200 PM CDT THU AUG 25 2016

......SGF CWA......

CITY           SKY/WX    TMP DP  RH WIND       PRES   REMARKS
SPRINGFIELD    MOSUNNY   89  71  55 SW15      30.09F HX  95
JOPLIN         MOSUNNY   91  71  51 W8        30.06F HX  97
WEST PLAINS    PTSUNNY   89  71  55 W5        30.14F HX  95
ROLLA          MOSUNNY   86  71  60 SW7       30.08F HX  91
BRANSON        MOSUNNY   88  70  55 W5        30.13F HX  92

......SURROUNDING SGF CWA......

CITY           SKY/WX    TMP DP  RH WIND       PRES   REMARKS
CHANUTE        MOSUNNY   87  73  62 S3        30.06F HX  94
PARSONS        CLOUDY    89  68  49 NW8       30.06F HX  93
COFFEYVILLE    MOSUNNY   92  68  45 VRB7      30.04F HX  96
EMPORIA        PTSUNNY   80  69  69 CALM      30.08F

......KANSAS AND MISSOURI......

CITY           SKY/WX    TMP DP  RH WIND       PRES   REMARKS
KANSAS CTY INT PTSUNNY   80  68  66 W3        30.07S
SEDALIA        PTSUNNY   87  71  58 SW8       30.07F HX  93
ST JOSEPH      CLOUDY    77  68  73 N9        30.09S
ST LOUIS       PTSUNNY   92  71  50 SW8       30.06F HX  98
KIRKSVILLE     LGT RAIN  72  69  90 NE14      30.10S FOG
WICHITA        PTSUNNY   83  66  56 W6        30.08F
TOPEKA           N/A     79  69  71 CALM      30.07F
OLATHE         PTSUNNY   80  69  69 SW7       30.07F

......TENNESSEE......

CITY           SKY/WX    TMP DP  RH WIND       PRES   REMARKS
MEMPHIS        NOT AVBL
NASHVILLE      PTSUNNY   94  74  52 NW12      30.12F HX 104

......ARKANSAS.......

CITY           SKY/WX    TMP DP  RH WIND       PRES   REMARKS
FAYETTEVILLE   MOSUNNY   89  70  53 S8        30.11F HX  94
FT SMITH       MOSUNNY   93  69  45 W7        30.06F HX  98
LITTLE ROCK    CLOUDY    92  72  51 CALM      30.07F HX  99

......OKLAHOMA.......

CITY           SKY/WX    TMP DP  RH WIND       PRES   REMARKS
TULSA          CLOUDY    94  72  48 S10       30.02F HX 102
PONCA CITY     PTSUNNY   85  69  58 VRB3      30.06F
MCALESTER      MOSUNNY   92  69  47 SW7       30.07F HX  97
OKLAHOMA CITY  PTSUNNY   93  67  42 W9        30.05F HX  96

......IOWA............

CITY           SKY/WX    TMP DP  RH WIND       PRES   REMARKS
DES MOINES     NOT AVBL
QUAD CITIES    MOSUNNY   78  66  66 NW8       30.05F

......ILLINOIS........

CITY           SKY/WX    TMP DP  RH WIND       PRES   REMARKS
QUINCY         NOT AVBL
CHICAGO        PTSUNNY   83  67  58 NW5       30.03F




USA.gov is the U.S. government's official web portal to all federal, state and local government web resources and services.